This is the latest recevied weather packets stored in our database for station/object KC4JES. If no packets are shown the sender has not sent any weather packets the latest 10 day(s).
| Time | Temp. | Humidity | Pressure | Rain* | Wind** | Luminosity | Snow |
|---|---|---|---|---|---|---|---|
| 1777922661 | 26.67° C | 47% | 1017.7 hPa | 0 mm | - | 885 W/m² | - |
| 1777922360 | 26.67° C | 47% | 1017.7 hPa | 0 mm | - | 885 W/m² | - |
| 1777922057 | 26.67° C | 47% | 1017.7 hPa | 0 mm | - | 885 W/m² | - |
| 1777921752 | 26.67° C | 45% | 1018 hPa | 0 mm | - | 896 W/m² | - |
| 1777921448 | 26.11° C | 49% | 1018.1 hPa | 0 mm | - | 906 W/m² | - |
| 1777921145 | 25.56° C | 47% | 1018.2 hPa | 0 mm | - | 907 W/m² | - |
| 1777920843 | 26.11° C | 51% | 1018.2 hPa | 0 mm | - | 923 W/m² | - |
| 1777920538 | 26.11° C | 45% | 1018.3 hPa | 0 mm | - | 933 W/m² | - |
| 1777920234 | 26.11° C | 45% | 1018.4 hPa | 0 mm | - | 938 W/m² | - |
| 1777919930 | 26.67° C | 46% | 1018.4 hPa | 0 mm | - | 947 W/m² | - |
| 1777919628 | 26.67° C | 45% | 1018.4 hPa | 0 mm | - | 958 W/m² | - |
| 1777919325 | 26.11° C | 43% | 1018.7 hPa | 0 mm | - | 966 W/m² | - |
| 1777919023 | 26.11° C | 45% | 1018.8 hPa | 0 mm | - | 965 W/m² | - |
| 1777918719 | 26.11° C | 47% | 1018.5 hPa | 0 mm | - | 977 W/m² | - |
| 1777918417 | 25.56° C | 49% | 1018.5 hPa | 0 mm | - | 980 W/m² | - |
| 1777918116 | 25.56° C | 46% | 1018.3 hPa | 0 mm | - | 988 W/m² | - |
| 1777917813 | 25.56° C | 50% | 1018.5 hPa | 0 mm | - | 994 W/m² | - |
| 1777917512 | 25.56° C | 47% | 1018.7 hPa | 0 mm | - | 996 W/m² | - |
| 1777917208 | 25° C | 50% | 1018.7 hPa | 0 mm | - | 991 W/m² | - |
| 1777916907 | 25.56° C | 48% | 1018.6 hPa | 0 mm | - | 1001 W/m² | - |
| 1777916604 | 25.56° C | 47% | 1019 hPa | 0 mm | - | 1008 W/m² | - |
| 1777916300 | 25.56° C | 48% | 1018.8 hPa | 0 mm | - | 989 W/m² | - |
| 1777915997 | 25.56° C | 46% | 1018.8 hPa | 0 mm | - | 1009 W/m² | - |
| 1777915694 | 25° C | 48% | 1018.7 hPa | 0 mm | - | 1012 W/m² | - |
| 1777915391 | 25° C | 45% | 1019 hPa | 0 mm | - | 697 W/m² | - |
* Rain latest hour (hover to see other rain measurements)
** Current wind speed in m/s (hover to see current wind gust speed)